Content
SEND FEEDBACK

Daily
Averages
Monthly
Summary
United States of America

INARAJAN, GUAM


Home > North America > United States > Guam
Elevation: 280 feet     Latitude: 13 18N     Longitude: 144 44E

WEATHER
 
SELECT A DAY
Number of Records: 351,895;   Date Range: 1/1/95 - 10/24/14
 
SHARE

PRINT THIS DATA

[ ← Previous Day ]
WEATHER ALMANAC - JULY 8, 2013
[ Next Day → ]
[ °C ]   °F
We're sorry. There is no daily almanac available for Inarajan, Guam on July 8, 2013.
WEATHER BY HOUR - JULY 8, 2013
[ °C ]   °F
Local TimeTemperatureDewpointHumidityBarometerVisibilityWind DirectionWind SpeedGust SpeedPrecipitationEventsConditions
1:55 AM76.8 °F74.3 °F92 %29.79 in10.0 miSouth (190°)5.8 mphClear
2:55 AM76.6 °F72.9 °F88 %29.78 in10.0 miSSW (210°)5.8 mphClear
3:55 AM75.7 °F71.8 °F87 %29.77 in10.0 miSSW (200°)5.8 mphClear
4:55 AM75.9 °F71.2 °F85 %29.77 in10.0 miSSW (210°)6.9 mphPartly Cloudy
5:55 AM75.9 °F71.2 °F85 %29.79 in10.0 miSSW (200°)4.6 mphClear
6:55 AM78.1 °F73.6 °F86 %29.80 in10.0 miWSW (240°)8.1 mphClear
7:55 AM81.1 °F76.8 °F87 %29.80 in10.0 miWSW (240°)8.1 mphClear
8:35 AM82.4 °F77.0 °F84 %29.80 in10.0 miSW (220°)11.5 mphMostly Cloudy
8:36 AM82.4 °F77.0 °F84 %29.80 in10.0 miSW (230°)12.7 mphScattered Clouds
8:38 AM82.4 °F77.0 °F84 %29.80 in10.0 miSW (220°)11.5 mphMostly Cloudy
8:46 AM82.4 °F77.0 °F84 %29.80 in10.0 miSW (230°)15.0 mph20.7 mphScattered Clouds
8:55 AM83.8 °F77.5 °F81 %29.80 in10.0 miSSW (210°)15.0 mph20.7 mphScattered Clouds
9:45 AM84.2 °F77.0 °F79 %29.80 in10.0 miSSW (210°)11.5 mph21.9 mphMostly Cloudy
9:49 AM84.2 °F78.8 °F84 %29.80 in10.0 miSW (220°)11.5 mph21.9 mphScattered Clouds
9:55 AM82.9 °F78.6 °F87 %29.81 in10.0 miSW (220°)11.5 mphScattered Clouds
10:04 AM80.6 °F78.8 °F94 %29.81 in10.0 miWest (270°)12.7 mphMostly Cloudy
10:07 AM80.6 °F78.8 °F94 %29.81 in10.0 miWest (270°)12.7 mphMostly Cloudy
10:37 AM84.2 °F80.6 °F89 %29.81 in10.0 miSW (220°)9.2 mphMostly Cloudy
10:38 AM84.2 °F80.6 °F89 %29.81 in10.0 miSSW (210°)11.5 mphLight Drizzle
10:55 AM79.9 °F76.5 °F89 %29.82 in10.0 miWest (270°)13.8 mph20.7 mph0.02 inRainLight Rain
11:03 AM80.6 °F77.0 °F89 %29.82 in10.0 miWest (270°)10.4 mphMostly Cloudy
11:09 AM80.6 °F78.8 °F94 %29.82 in10.0 miWest (270°)11.5 mphRainLight Rain
11:28 AM78.8 °F75.2 °F89 %29.82 in8.0 miWSW (240°)12.7 mphScattered Clouds
11:55 AM82.4 °F79.0 °F89 %29.80 in10.0 miWSW (240°)10.4 mph0.01 inScattered Clouds
12:55 PM85.5 °F78.4 °F79 %29.78 in10.0 miSW (230°)11.5 mphMostly Cloudy
1:20 PM86.0 °F78.8 °F79 %29.78 in10.0 miWest (280°)8.1 mphMostly Cloudy
1:28 PM86.0 °F80.6 °F84 %29.77 in10.0 miWest (280°)9.2 mphMostly Cloudy
1:32 PM86.0 °F78.8 °F79 %29.77 in10.0 miWest (280°)10.4 mphMostly Cloudy
1:53 PM86.0 °F78.8 °F79 %29.76 in10.0 miWest (280°)13.8 mphMostly Cloudy
1:55 PM86.5 °F79.3 °F79 %29.76 in10.0 miWest (270°)13.8 mphMostly Cloudy
1:57 PM86.0 °F78.8 °F79 %29.76 in10.0 miWest (270°)13.8 mphMostly Cloudy
2:07 PM86.0 °F78.8 °F79 %29.75 in10.0 miWest (260°)12.7 mphMostly Cloudy
2:55 PM85.8 °F78.6 °F79 %29.75 in10.0 miWest (280°)15.0 mphPartly Cloudy
3:55 PM84.9 °F77.9 °F79 %29.74 in10.0 miWest (270°)17.3 mphClear
4:55 PM83.5 °F77.7 °F83 %29.73 in10.0 miWest (260°)9.2 mphClear
5:55 PM82.9 °F77.2 °F83 %29.74 in10.0 miSW (220°)6.9 mphClear
6:55 PM81.5 °F77.0 °F86 %29.76 in10.0 miSSW (210°)6.9 mphClear
7:55 PM81.0 °F77.9 °F90 %29.77 in10.0 miSSW (200°)8.1 mphPartly Cloudy
8:55 PM80.6 °F78.3 °F93 %29.79 in10.0 miSSW (200°)9.2 mphScattered Clouds
9:13 PM80.6 °F78.8 °F94 %29.79 in10.0 miSSW (200°)8.1 mphMostly Cloudy
9:14 PM80.6 °F78.8 °F94 %29.79 in10.0 miSSW (210°)6.9 mphScattered Clouds
9:15 PM80.6 °F78.8 °F94 %29.79 in10.0 miSSW (210°)8.1 mphMostly Cloudy
9:18 PM80.6 °F78.8 °F94 %29.79 in10.0 miSSW (200°)9.2 mphScattered Clouds
9:55 PM80.6 °F78.1 °F92 %29.79 in10.0 miSSW (210°)8.1 mphClear
10:55 PM80.4 °F77.9 °F92 %29.80 in10.0 miSSW (200°)9.2 mphScattered Clouds
11:55 PM80.1 °F77.4 °F91 %29.79 in10.0 miSSW (200°)8.1 mphClear
Hourly data recorded from PGUA, located miles away from Inarajan, Guam







STORIES FROM OUR PARTNERS